Location: Vale
(35.4830°N, 81.3830°W)
Time: 13:51:06
(UTC-04:00)

Cosmos 2237 Rocket - Visible Passes

Search period start: 27 May 2015 00:00
Search period end: 06 June 2015 00:00
Orbit: 834 x 851 km, 71.0° (Epoch: 26 May)

Date Brightness Start Highest point End Pass type
(mag) Time Alt. Az. Time Alt. Az. Time Alt. Az.
27 May 4.5 01:16:37 13° W 01:18:57 15° NW 01:22:08 10° NNW visible
27 May 2.1 23:19:32 67° E 23:19:32 67° E 23:25:05 10° NNE visible
28 May 4.6 01:01:18 12° W 01:04:07 16° NW 01:07:29 10° NNW visible
28 May 2.1 23:04:05 60° SE 23:04:38 64° ESE 23:10:17 10° NNE visible
29 May 4.6 00:45:50 11° W 00:49:17 17° NW 00:52:48 10° NNW visible
29 May 2.2 22:48:26 46° SSE 22:49:51 61° ESE 22:55:28 10° NNE visible
30 May 4.6 00:30:33 10° W 00:34:27 18° NW 00:38:08 10° NNW visible
30 May 2.2 22:32:31 31° S 22:35:04 57° ESE 22:40:39 10° NNE visible
31 May 4.5 00:15:35 10° W 00:19:37 19° NW 00:23:27 10° NNW visible
31 May 2.3 22:16:11 18° S 22:20:17 54° ESE 22:25:51 10° NNE visible
01 Jun 4.5 00:00:38 10° WSW 00:04:47 20° NW 00:08:45 10° N visible
01 Jun 2.3 22:00:03 10° S 22:05:30 51° ESE 22:11:02 10° NNE visible
01 Jun 4.5 23:45:41 10° WSW 23:49:57 21° NW 23:54:03 10° N visible
02 Jun 2.4 21:45:18 10° S 21:50:43 49° ESE 21:56:12 10° NNE visible
02 Jun 4.5 23:30:46 10° WSW 23:35:08 22° NW 23:39:21 10° N visible
03 Jun 2.5 21:30:34 10° S 21:35:56 46° ESE 21:41:23 10° NE visible
03 Jun 4.5 23:15:49 10° WSW 23:20:18 23° WNW 23:24:38 10° N visible
04 Jun 2.5 21:15:51 10° S 21:21:10 44° ESE 21:26:33 10° NE visible
04 Jun 4.5 23:00:54 10° WSW 23:05:29 24° WNW 23:09:55 10° N visible
05 Jun 2.6 21:01:07 10° S 21:06:23 41° ESE 21:11:43 10° NE visible
05 Jun 4.4 22:45:59 10° WSW 22:50:39 25° WNW 22:55:12 10° N visible
